N1LJK-13 Weather Reports


time (UTC)temp
C
wind
direction
speed
KPH
gust
KPH
rain 1hr
cm
rain 24hr
cm
rain mn
cm
humidity
%
barometer
mb
20260507122535 11 188 3.2 6.4 0.00 1.27 0.56 98 1008.3
20260507120532 11 238 1.6 3.2 0.00 1.27 0.56 98 1008.1
20260507112533 8 235 0.0 1.6 0.00 1.27 0.56 98 1008.7
20260507110532 8 0 0.0 0.0 0.00 1.27 0.56 98 1009.3
20260507104532 8 0 0.0 1.6 0.00 1.27 0.56 98 1009.0
20260507102532 8 204 1.6 3.2 0.00 1.27 0.56 98 1008.3
20260507100533 8 159 0.0 3.2 0.03 1.27 0.56 98 1008.1
20260507094532 8 195 1.6 3.2 0.03 1.27 0.56 98 1007.9
20260507092533 8 189 0.0 3.2 0.03 1.27 0.56 98 1008.0
20260507090532 8 193 1.6 6.4 0.00 1.24 0.53 98 1007.9
20260507084532 8 208 3.2 6.4 0.00 1.24 0.53 98 1007.5
20260507082532 9 215 1.6 3.2 0.00 1.24 0.53 98 1007.7
20260507080532 10 174 1.6 3.2 0.00 1.24 0.53 98 1007.3
20260507074532 10 265 0.0 3.2 0.00 1.24 0.53 98 1007.2
20260507072535 10 225 0.0 1.6 0.00 1.24 0.53 98 1006.8
20260507070532 10 0 0.0 0.0 0.00 1.24 0.53 98 1006.6
20260507064532 10 225 0.0 3.2 0.00 1.24 0.53 98 1006.6
20260507062532 10 199 3.2 4.8 0.00 1.24 0.53 98 1006.6
20260507060532 10 180 1.6 3.2 0.00 1.24 0.53 98 1006.3
20260507054532 10 145 1.6 9.7 0.15 1.24 0.53 98 1006.3
20260507052532 11 184 3.2 6.4 0.43 1.24 0.53 98 1006.3
20260507044532 11 193 1.6 4.8 0.25 0.99 0.25 98 1006.6
20260507042532 11 246 4.8 8.0 0.08 0.79 0.08 98 1005.4
20260507040532 11 251 6.4 8.0 0.00 0.71 0.00 98 1005.8
20260507034532 11 245 6.4 9.7 0.00 0.71 0.71 98 1005.8
20260507030532 11 249 9.7 12.9 0.00 0.71 0.71 98 1006.1
20260507024532 11 259 11.3 17.7 0.00 0.71 0.71 98 1006.3
20260507022532 11 235 9.7 14.5 0.00 0.71 0.71 98 1006.6
20260507020532 11 238 9.7 16.1 0.05 0.71 0.71 98 1006.8
20260507014533 10 242 12.9 16.1 0.05 0.71 0.71 98 1007.1
20260507012532 11 258 9.7 14.5 0.05 0.71 0.71 98 1007.1
20260507010532 11 214 8.0 12.9 0.00 0.64 0.64 98 1007.3
20260507000534 11 232 11.3 17.7 0.00 0.64 0.64 98 1007.6
20260506234533 11 234 9.7 12.9 0.05 0.64 0.64 98 1007.9
20260506232533 11 218 11.3 12.9 0.13 0.64 0.64 98 1007.9
20260506230534 12 202 12.9 17.7 0.20 0.64 0.64 98 1008.1
20260506224532 12 241 12.9 14.5 0.28 0.56 0.56 98 1008.1
20260506222532 12 243 14.5 19.3 0.30 0.48 0.48 98 1008.1
20260506212532 11 247 14.5 17.7 0.10 0.18 0.18 58 1009.1
20260506210532 11 255 9.7 14.5 0.08 0.10 0.10 73 1008.8
20260506204532 12 227 9.7 14.5 0.08 0.10 0.10 60 1009.2
20260506202532 12 244 9.7 12.9 0.08 0.08 0.08 89 1009.3
20260506200532 12 238 11.3 17.7 0.03 0.03 0.03 98 1009.1
20260506194533 12 232 12.9 17.7 0.00 0.00 0.00 98 1009.3
20260506184532 -17 0 0.0 0.0 0.00 0.00 0.00 100
20260506182537 -17 0 0.0 0.0 0.00 0.00 0.00 100
20260506140533 13 215 9.7 12.9 0.00 0.00 0.00 98 1011.8
20260506134532 13 251 11.3 16.1 0.00 0.00 0.00 98 1011.7